| time (UTC) | temp C | wind direction | speed KPH | gust KPH | rain 1hr cm | rain 24hr cm | rain mn cm | humidity % | barometer mb |
| 20260903043608 | 25 | 300 | 0.0 | 0.0 | 0.00 | 0.00 | 0.00 | 60 | 1018.7 |
| 20260903043108 | 25 | 300 | 0.0 | 0.0 | 0.00 | 0.00 | 0.00 | 60 | 1018.7 |
| 20260903042605 | 25 | 300 | 0.0 | 0.0 | 0.00 | 0.00 | 0.00 | 60 | 1018.7 |
| 20260903042105 | 25 | 300 | 0.0 | 0.0 | 0.00 | 0.00 | 0.00 | 60 | 1018.8 |
| 20260903041603 | 25 | 300 | 0.0 | 0.0 | 0.00 | 0.00 | 0.00 | 60 | 1018.8 |
| 20260903041104 | 25 | 300 | 0.0 | 0.0 | 0.00 | 0.00 | 0.00 | 59 | 1018.8 |
| 20260903040603 | 25 | 300 | 0.0 | 0.0 | 0.00 | 0.00 | 0.00 | 59 | 1018.7 |
| 20260903040103 | 25 | 300 | 0.0 | 0.0 | 0.00 | 0.00 | 0.00 | 59 | 1018.7 |
| 20260903035100 | 25 | 300 | 0.0 | 0.0 | 0.00 | 0.00 | 0.00 | 59 | 1018.8 |
| 20260903034554 | 25 | 300 | 0.0 | 0.0 | 0.00 | 0.00 | 0.00 | 59 | 1018.9 |
| 20260903034054 | 25 | 300 | 0.0 | 0.0 | 0.00 | 0.00 | 0.00 | 59 | 1018.8 |
| 20260903033552 | 25 | 300 | 0.0 | 0.0 | 0.00 | 0.00 | 0.00 | 59 | 1018.7 |
| 20260903032548 | 26 | 300 | 0.0 | 0.0 | 0.00 | 0.00 | 0.00 | 58 | 1018.8 |
| 20260903032048 | 26 | 300 | 0.0 | 0.0 | 0.00 | 0.00 | 0.00 | 58 | 1018.9 |
| 20260903031546 | 26 | 300 | 0.0 | 0.0 | 0.00 | 0.00 | 0.00 | 58 | 1018.9 |
| 20260903031044 | 26 | 300 | 0.0 | 0.0 | 0.00 | 0.00 | 0.00 | 58 | 1019.0 |
| 20260903030542 | 26 | 300 | 0.0 | 0.0 | 0.00 | 0.00 | 0.00 | 58 | 1019.0 |
| 20260903030040 | 26 | 300 | 0.0 | 0.0 | 0.00 | 0.00 | 0.00 | 58 | 1019.1 |
| 20260903025538 | 26 | 300 | 0.0 | 0.0 | 0.00 | 0.00 | 0.00 | 58 | 1019.1 |
| 20260903025038 | 26 | 300 | 0.0 | 0.0 | 0.00 | 0.00 | 0.00 | 58 | 1019.1 |
| 20260903024536 | 26 | 300 | 0.0 | 0.0 | 0.00 | 0.00 | 0.00 | 57 | 1019.2 |
| 20260903024037 | 26 | 300 | 0.0 | 0.0 | 0.00 | 0.00 | 0.00 | 57 | 1019.1 |
| 20260903023536 | 26 | 300 | 0.0 | 0.0 | 0.00 | 0.00 | 0.00 | 57 | 1019.1 |
| 20260903022035 | 26 | 300 | 0.0 | 0.0 | 0.00 | 0.00 | 0.00 | 56 | 1019.1 |
| 20260903021534 | 27 | 300 | 0.0 | 0.0 | 0.00 | 0.00 | 0.00 | 56 | 1019.1 |
| 20260903021034 | 27 | 300 | 0.0 | 0.0 | 0.00 | 0.00 | 0.00 | 56 | 1019.2 |
| 20260903020031 | 27 | 300 | 0.0 | 0.0 | 0.00 | 0.00 | 0.00 | 55 | 1019.2 |
| 20260903015532 | 27 | 300 | 0.0 | 0.0 | 0.00 | 0.00 | 0.00 | 54 | 1019.2 |
| 20260903015029 | 27 | 300 | 0.0 | 0.0 | 0.00 | 0.00 | 0.00 | 54 | 1019.2 |
| 20260903014530 | 27 | 300 | 0.0 | 0.0 | 0.00 | 0.00 | 0.00 | 54 | 1019.2 |
| 20260903014033 | 27 | 300 | 0.0 | 0.0 | 0.00 | 0.00 | 0.00 | 54 | 1019.1 |
| 20260903013532 | 27 | 300 | 0.0 | 0.0 | 0.00 | 0.00 | 0.00 | 53 | 1019.0 |
| 20260903013031 | 28 | 300 | 0.0 | 0.0 | 0.00 | 0.00 | 0.00 | 53 | 1018.9 |
| 20260903012530 | 28 | 300 | 0.0 | 0.0 | 0.00 | 0.00 | 0.00 | 52 | 1018.9 |
| 20260903012028 | 28 | 300 | 0.0 | 0.0 | 0.00 | 0.00 | 0.00 | 52 | 1018.9 |
| 20260903011530 | 28 | 300 | 0.0 | 0.0 | 0.00 | 0.00 | 0.00 | 51 | 1018.8 |
| 20260903011029 | 28 | 300 | 0.0 | 0.0 | 0.00 | 0.00 | 0.00 | 51 | 1018.8 |
| 20260903010529 | 28 | 300 | 0.0 | 0.0 | 0.00 | 0.00 | 0.00 | 51 | 1019.0 |
| 20260903005527 | 29 | 300 | 0.0 | 0.0 | 0.00 | 0.00 | 0.00 | 50 | 1018.5 |
| 20260903005028 | 29 | 300 | 0.0 | 0.0 | 0.00 | 0.00 | 0.00 | 50 | 1018.5 |
| 20260903004528 | 30 | 300 | 0.0 | 0.0 | 0.00 | 0.00 | 0.00 | 49 | 1018.5 |
| 20260903002523 | 30 | 300 | 0.0 | 0.0 | 0.00 | 0.00 | 0.00 | 46 | 1018.5 |
| 20260903002023 | 31 | 300 | 0.0 | 0.0 | 0.00 | 0.00 | 0.00 | 46 | 1018.5 |
| 20260903001523 | 31 | 300 | 0.0 | 0.0 | 0.00 | 0.00 | 0.00 | 45 | 1018.5 |
| 20260903001023 | 31 | 300 | 0.0 | 0.0 | 0.00 | 0.00 | 0.00 | 44 | 1018.5 |
| 20260903000524 | 31 | 300 | 0.0 | 0.0 | 0.00 | 0.00 | 0.00 | 43 | 1018.5 |
| 20260902234523 | 32 | 300 | 0.0 | 1.6 | 0.00 | 0.00 | 0.00 | 40 | 1018.6 |
| 20260902233519 | 32 | 300 | 0.0 | 1.6 | 0.00 | 0.00 | 0.00 | 40 | 1018.5 |
| 20260902232520 | 32 | 300 | 0.0 | 0.0 | 0.00 | 0.00 | 0.00 | 38 | 1018.6 |
| 20260902232019 | 32 | 300 | 0.0 | 1.6 | 0.00 | 0.00 | 0.00 | 38 | 1018.6 |
| 20260902231527 | 32 | 300 | 0.0 | 1.6 | 0.00 | 0.00 | 0.00 | 38 | 1018.6 |
| 20260902231026 | 32 | 300 | 0.0 | 3.2 | 0.00 | 0.00 | 0.00 | 37 | 1018.5 |
| 20260902230526 | 33 | 300 | 0.0 | 3.2 | 0.00 | 0.00 | 0.00 | 37 | 1018.5 |
| 20260902230027 | 33 | 297 | 0.0 | 1.6 | 0.00 | 0.00 | 0.00 | 37 | 1018.7 |
| 20260902225522 | 33 | 297 | 0.0 | 3.2 | 0.00 | 0.00 | 0.00 | 37 | 1018.6 |
| 20260902224522 | 33 | 293 | 0.0 | 1.6 | 0.00 | 0.00 | 0.00 | 37 | 1018.7 |
| 20260902224019 | 33 | 293 | 0.0 | 1.6 | 0.00 | 0.00 | 0.00 | 36 | 1018.6 |
| 20260902223518 | 33 | 293 | 0.0 | 4.8 | 0.00 | 0.00 | 0.00 | 36 | 1018.6 |
| 20260902223018 | 33 | 293 | 0.0 | 4.8 | 0.00 | 0.00 | 0.00 | 36 | 1018.6 |
| 20260902222518 | 33 | 284 | 0.0 | 3.2 | 0.00 | 0.00 | 0.00 | 37 | 1018.8 |
| 20260902222016 | 33 | 284 | 0.0 | 1.6 | 0.00 | 0.00 | 0.00 | 37 | 1018.7 |
| 20260902221516 | 33 | 284 | 0.0 | 3.2 | 0.00 | 0.00 | 0.00 | 37 | 1018.8 |
| 20260902221015 | 33 | 284 | 0.0 | 3.2 | 0.00 | 0.00 | 0.00 | 37 | 1018.8 |
| 20260902220515 | 33 | 284 | 0.0 | 3.2 | 0.00 | 0.00 | 0.00 | 36 | 1018.9 |
| 20260902220015 | 33 | 325 | 0.0 | 0.0 | 0.00 | 0.00 | 0.00 | 36 | 1018.9 |
| 20260902215515 | 33 | 325 | 0.0 | 0.0 | 0.00 | 0.00 | 0.00 | 36 | 1018.8 |
| 20260902215016 | 33 | 325 | 0.0 | 0.0 | 0.00 | 0.00 | 0.00 | 35 | 1018.9 |
| 20260902214012 | 34 | 325 | 1.6 | 4.8 | 0.00 | 0.00 | 0.00 | 37 | 1018.9 |
| 20260902213510 | 34 | 269 | 1.6 | 3.2 | 0.00 | 0.00 | 0.00 | 37 | 1018.9 |
| 20260902213008 | 34 | 268 | 0.0 | 4.8 | 0.00 | 0.00 | 0.00 | 36 | 1019.0 |
| 20260902212506 | 34 | 252 | 1.6 | 6.4 | 0.00 | 0.00 | 0.00 | 36 | 1019.1 |
| 20260902212002 | 34 | 273 | 1.6 | 8.0 | 0.00 | 0.00 | 0.00 | 35 | 1019.1 |
| 20260902211501 | 34 | 304 | 1.6 | 8.0 | 0.00 | 0.00 | 0.00 | 35 | 1019.1 |
| 20260902211001 | 34 | 344 | 0.0 | 1.6 | 0.00 | 0.00 | 0.00 | 36 | 1019.1 |
| 20260902210501 | 34 | 315 | 0.0 | 0.0 | 0.00 | 0.00 | 0.00 | 36 | 1019.1 |
| 20260902210003 | 34 | 315 | 0.0 | 3.2 | 0.00 | 0.00 | 0.00 | 35 | 1019.1 |
| 20260902205501 | 35 | 321 | 1.6 | 3.2 | 0.00 | 0.00 | 0.00 | 35 | 1019.1 |
| 20260902205000 | 35 | 277 | 1.6 | 4.8 | 0.00 | 0.00 | 0.00 | 35 | 1019.2 |
| 20260902204452 | 35 | 293 | 3.2 | 11.3 | 0.00 | 0.00 | 0.00 | 36 | 1019.1 |
| 20260902203450 | 35 | 306 | 0.0 | 9.7 | 0.00 | 0.00 | 0.00 | 35 | 1019.0 |
| 20260902202947 | 35 | 26 | 0.0 | 1.6 | 0.00 | 0.00 | 0.00 | 35 | 1019.1 |
| 20260902201942 | 35 | 26 | 1.6 | 4.8 | 0.00 | 0.00 | 0.00 | 32 | 1019.2 |
| 20260902200942 | 35 | 274 | 0.0 | 4.8 | 0.00 | 0.00 | 0.00 | 31 | 1019.2 |
| 20260902200440 | 35 | 236 | 1.6 | 6.4 | 0.00 | 0.00 | 0.00 | 33 | 1019.3 |
| 20260902195437 | 35 | 262 | 1.6 | 8.0 | 0.00 | 0.00 | 0.00 | 35 | 1019.3 |
| 20260902194942 | 35 | 321 | 1.6 | 8.0 | 0.00 | 0.00 | 0.00 | 34 | 1019.4 |
| 20260902194436 | 35 | 280 | 0.0 | 3.2 | 0.00 | 0.00 | 0.00 | 36 | 1019.6 |
| 20260902193931 | 35 | 280 | 1.6 | 4.8 | 0.00 | 0.00 | 0.00 | 37 | 1019.6 |
| 20260902192930 | 35 | 300 | 1.6 | 4.8 | 0.00 | 0.00 | 0.00 | 35 | 1019.7 |
| 20260902192429 | 35 | 304 | 1.6 | 4.8 | 0.00 | 0.00 | 0.00 | 36 | 1019.9 |
| 20260902190927 | 35 | 309 | 1.6 | 9.7 | 0.00 | 0.00 | 0.00 | 36 | 1019.9 |
| 20260902190421 | 35 | 261 | 1.6 | 6.4 | 0.00 | 0.00 | 0.00 | 36 | 1019.9 |
| 20260902185917 | 35 | 87 | 1.6 | 6.4 | 0.00 | 0.00 | 0.00 | 36 | 1019.9 |
| 20260902185415 | 35 | 283 | 1.6 | 6.4 | 0.00 | 0.00 | 0.00 | 36 | 1020.1 |
| 20260902184911 | 35 | 286 | 1.6 | 6.4 | 0.00 | 0.00 | 0.00 | 35 | 1020.1 |
| 20260902184407 | 35 | 303 | 0.0 | 3.2 | 0.00 | 0.00 | 0.00 | 35 | 1020.0 |
| 20260902183407 | 36 | 316 | 1.6 | 9.7 | 0.00 | 0.00 | 0.00 | 34 | 1020.1 |
| 20260902182909 | 36 | 322 | 1.6 | 9.7 | 0.00 | 0.00 | 0.00 | 33 | 1020.0 |
| 20260902182407 | 36 | 62 | 1.6 | 4.8 | 0.00 | 0.00 | 0.00 | 34 | 1020.1 |
| 20260902181405 | 36 | 5 | 1.6 | 6.4 | 0.00 | 0.00 | 0.00 | 34 | 1020.2 |
| 20260902175905 | 36 | 292 | 1.6 | 4.8 | 0.00 | 0.00 | 0.00 | 34 | 1020.3 |
| 20260902175403 | 36 | 90 | 1.6 | 6.4 | 0.00 | 0.00 | 0.00 | 34 | 1020.4 |
| 20260902174408 | 37 | 14 | 1.6 | 3.2 | 0.00 | 0.00 | 0.00 | 32 | 1020.7 |
| 20260902173908 | 37 | 24 | 1.6 | 6.4 | 0.00 | 0.00 | 0.00 | 34 | 1020.9 |
| 20260902172908 | 37 | 154 | 1.6 | 4.8 | 0.00 | 0.00 | 0.00 | 34 | 1021.0 |
| 20260902172400 | 37 | 293 | 1.6 | 4.8 | 0.00 | 0.00 | 0.00 | 33 | 1020.9 |
| 20260902171853 | 37 | 263 | 1.6 | 4.8 | 0.00 | 0.00 | 0.00 | 34 | 1021.0 |
| 20260902165838 | 36 | 342 | 0.0 | 6.4 | 0.00 | 0.00 | 0.00 | 34 | 1021.3 |
| 20260902165337 | 36 | 62 | 0.0 | 4.8 | 0.00 | 0.00 | 0.00 | 36 | 1021.3 |
| 20260902164835 | 36 | 338 | 0.0 | 4.8 | 0.00 | 0.00 | 0.00 | 36 | 1021.4 |
| 20260902164333 | 36 | 301 | 1.6 | 4.8 | 0.00 | 0.00 | 0.00 | 36 | 1021.4 |
| 20260902163339 | 36 | 262 | 1.6 | 4.8 | 0.00 | 0.00 | 0.00 | 37 | 1021.6 |
| 20260902162836 | 36 | 242 | 1.6 | 4.8 | 0.00 | 0.00 | 0.00 | 36 | 1021.6 |
| 20260902162331 | 36 | 294 | 1.6 | 4.8 | 0.00 | 0.00 | 0.00 | 36 | 1021.6 |
| 20260902161831 | 36 | 294 | 1.6 | 4.8 | 0.00 | 0.00 | 0.00 | 36 | 1021.6 |
| 20260902161331 | 36 | 304 | 0.0 | 3.2 | 0.00 | 0.00 | 0.00 | 38 | 1021.6 |
| 20260902160830 | 35 | 302 | 0.0 | 3.2 | 0.00 | 0.00 | 0.00 | 38 | 1021.6 |
| 20260902160329 | 35 | 302 | 1.6 | 3.2 | 0.00 | 0.00 | 0.00 | 38 | 1021.7 |
| 20260902155328 | 35 | 355 | 1.6 | 4.8 | 0.00 | 0.00 | 0.00 | 39 | 1021.8 |
| 20260902154830 | 35 | 355 | 1.6 | 4.8 | 0.00 | 0.00 | 0.00 | 39 | 1021.6 |
| 20260902154329 | 35 | 296 | 1.6 | 3.2 | 0.00 | 0.00 | 0.00 | 40 | 1021.7 |
| 20260902153829 | 35 | 298 | 1.6 | 3.2 | 0.00 | 0.00 | 0.00 | 40 | 1021.7 |
| 20260902153329 | 35 | 294 | 0.0 | 4.8 | 0.00 | 0.00 | 0.00 | 41 | 1021.7 |
| 20260902152823 | 34 | 290 | 0.0 | 4.8 | 0.00 | 0.00 | 0.00 | 41 | 1021.7 |
| 20260902152316 | 34 | 288 | 0.0 | 1.6 | 0.00 | 0.00 | 0.00 | 43 | 1021.6 |
| 20260902151306 | 33 | 289 | 1.6 | 4.8 | 0.00 | 0.00 | 0.00 | 42 | 1021.7 |
| 20260902150803 | 33 | 284 | 1.6 | 6.4 | 0.00 | 0.00 | 0.00 | 43 | 1021.5 |
| 20260902150303 | 33 | 330 | 1.6 | 6.4 | 0.00 | 0.00 | 0.00 | 43 | 1021.5 |
| 20260902145803 | 32 | 26 | 1.6 | 4.8 | 0.00 | 0.00 | 0.00 | 45 | 1021.5 |
| 20260902145306 | 32 | 309 | 1.6 | 4.8 | 0.00 | 0.00 | 0.00 | 47 | 1021.6 |
| 20260902144803 | 32 | 322 | 0.0 | 4.8 | 0.00 | 0.00 | 0.00 | 46 | 1021.6 |
| 20260902144303 | 31 | 315 | 0.0 | 1.6 | 0.00 | 0.00 | 0.00 | 49 | 1021.5 |
| 20260902143808 | 31 | 315 | 0.0 | 1.6 | 0.00 | 0.00 | 0.00 | 51 | 1021.5 |
| 20260902143302 | 30 | 315 | 0.0 | 1.6 | 0.00 | 0.00 | 0.00 | 53 | 1021.5 |
| 20260902142801 | 30 | 315 | 0.0 | 1.6 | 0.00 | 0.00 | 0.00 | 52 | 1021.5 |
| 20260902142301 | 29 | 315 | 0.0 | 3.2 | 0.00 | 0.00 | 0.00 | 54 | 1021.6 |
| 20260902141801 | 28 | 315 | 0.0 | 3.2 | 0.00 | 0.00 | 0.00 | 54 | 1021.6 |
| 20260902141301 | 28 | 314 | 0.0 | 1.6 | 0.00 | 0.00 | 0.00 | 55 | 1021.6 |
| 20260902140801 | 27 | 314 | 0.0 | 1.6 | 0.00 | 0.00 | 0.00 | 55 | 1021.6 |
| 20260902140301 | 27 | 314 | 0.0 | 3.2 | 0.00 | 0.00 | 0.00 | 54 | 1021.5 |
| 20260902135801 | 26 | 315 | 0.0 | 3.2 | 0.00 | 0.00 | 0.00 | 54 | 1021.6 |
| 20260902135301 | 26 | 314 | 0.0 | 3.2 | 0.00 | 0.00 | 0.00 | 52 | 1021.6 |
| 20260902134802 | 25 | 288 | 0.0 | 0.0 | 0.00 | 0.00 | 0.00 | 51 | 1021.6 |
| 20260902134258 | 25 | 288 | 0.0 | 0.0 | 0.00 | 0.00 | 0.00 | 50 | 1021.5 |
| 20260902133752 | 25 | 288 | 0.0 | 0.0 | 0.00 | 0.00 | 0.00 | 49 | 1021.5 |
| 20260902133247 | 24 | 288 | 0.0 | 0.0 | 0.00 | 0.00 | 0.00 | 48 | 1021.5 |
| 20260902132245 | 24 | 288 | 0.0 | 0.0 | 0.00 | 0.00 | 0.00 | 47 | 1021.4 |
| 20260902131745 | 23 | 288 | 0.0 | 0.0 | 0.00 | 0.00 | 0.00 | 48 | 1021.5 |
| 20260902131245 | 23 | 288 | 0.0 | 0.0 | 0.00 | 0.00 | 0.00 | 49 | 1021.5 |
| 20260902130240 | 23 | 288 | 0.0 | 0.0 | 0.00 | 0.00 | 0.00 | 50 | 1021.5 |
| 20260902125739 | 23 | 288 | 0.0 | 0.0 | 0.00 | 0.00 | 0.00 | 50 | 1021.4 |
| 20260902124736 | 22 | 288 | 0.0 | 0.0 | 0.00 | 0.00 | 0.00 | 50 | 1021.4 |
| 20260902124237 | 22 | 288 | 0.0 | 0.0 | 0.00 | 0.00 | 0.00 | 50 | 1021.4 |
| 20260902123237 | 22 | 288 | 0.0 | 0.0 | 0.00 | 0.00 | 0.00 | 50 | 1021.3 |
| 20260902122735 | 22 | 288 | 0.0 | 0.0 | 0.00 | 0.00 | 0.00 | 50 | 1021.4 |
| 20260902122233 | 22 | 288 | 0.0 | 0.0 | 0.00 | 0.00 | 0.00 | 50 | 1021.4 |
| 20260902121733 | 22 | 288 | 0.0 | 0.0 | 0.00 | 0.00 | 0.00 | 50 | 1021.2 |
| 20260902121239 | 22 | 288 | 0.0 | 0.0 | 0.00 | 0.00 | 0.00 | 50 | 1021.3 |
| 20260902120229 | 22 | 288 | 0.0 | 0.0 | 0.00 | 0.00 | 0.00 | 51 | 1021.1 |
| 20260902115729 | 22 | 288 | 0.0 | 0.0 | 0.00 | 0.00 | 0.00 | 52 | 1021.1 |
| 20260902115227 | 22 | 288 | 0.0 | 0.0 | 0.00 | 0.00 | 0.00 | 52 | 1021.0 |
| 20260902114724 | 21 | 288 | 0.0 | 0.0 | 0.00 | 0.00 | 0.00 | 52 | 1021.0 |
| 20260902114223 | 21 | 288 | 0.0 | 0.0 | 0.00 | 0.00 | 0.00 | 52 | 1021.0 |
| 20260902113722 | 21 | 288 | 0.0 | 0.0 | 0.00 | 0.00 | 0.00 | 53 | 1021.0 |
| 20260902112723 | 21 | 288 | 0.0 | 0.0 | 0.00 | 0.00 | 0.00 | 53 | 1020.7 |
| 20260902112223 | 21 | 288 | 0.0 | 0.0 | 0.00 | 0.00 | 0.00 | 53 | 1020.6 |
| 20260902111723 | 22 | 288 | 0.0 | 0.0 | 0.00 | 0.00 | 0.00 | 53 | 1020.6 |
| 20260902111223 | 22 | 288 | 0.0 | 0.0 | 0.00 | 0.00 | 0.00 | 53 | 1020.6 |
| 20260902110721 | 22 | 288 | 0.0 | 0.0 | 0.00 | 0.00 | 0.00 | 53 | 1020.4 |
| 20260902110222 | 22 | 288 | 0.0 | 0.0 | 0.00 | 0.00 | 0.00 | 53 | 1020.5 |
| 20260902105719 | 22 | 288 | 0.0 | 0.0 | 0.00 | 0.00 | 0.00 | 53 | 1020.5 |
| 20260902105217 | 22 | 288 | 0.0 | 0.0 | 0.00 | 0.00 | 0.00 | 53 | 1020.5 |
| 20260902104717 | 22 | 288 | 0.0 | 0.0 | 0.00 | 0.00 | 0.00 | 54 | 1020.4 |
| 20260902104219 | 22 | 288 | 0.0 | 0.0 | 0.00 | 0.00 | 0.00 | 54 | 1020.5 |
| 20260902103715 | 22 | 288 | 0.0 | 0.0 | 0.00 | 0.00 | 0.00 | 54 | 1020.4 |
| 20260902102713 | 22 | 288 | 0.0 | 0.0 | 0.00 | 0.00 | 0.00 | 54 | 1020.4 |
| 20260902102211 | 22 | 288 | 0.0 | 0.0 | 0.00 | 0.00 | 0.00 | 54 | 1020.4 |
| 20260902101709 | 22 | 288 | 0.0 | 0.0 | 0.00 | 0.00 | 0.00 | 54 | 1020.4 |
| 20260902101208 | 22 | 288 | 0.0 | 0.0 | 0.00 | 0.00 | 0.00 | 54 | 1020.4 |
| 20260902100704 | 22 | 288 | 0.0 | 0.0 | 0.00 | 0.00 | 0.00 | 54 | 1020.4 |
| 20260902100200 | 22 | 288 | 0.0 | 0.0 | 0.00 | 0.00 | 0.00 | 54 | 1020.3 |
| 20260902095659 | 22 | 288 | 0.0 | 0.0 | 0.00 | 0.00 | 0.00 | 54 | 1020.2 |
| 20260902095158 | 22 | 288 | 0.0 | 0.0 | 0.00 | 0.00 | 0.00 | 54 | 1020.1 |
| 20260902094655 | 22 | 288 | 0.0 | 0.0 | 0.00 | 0.00 | 0.00 | 54 | 1020.1 |
| 20260902093655 | 22 | 288 | 0.0 | 0.0 | 0.00 | 0.00 | 0.00 | 54 | 1020.1 |
| 20260902093153 | 22 | 288 | 0.0 | 0.0 | 0.00 | 0.00 | 0.00 | 54 | 1020.0 |
| 20260902092651 | 22 | 288 | 0.0 | 0.0 | 0.00 | 0.00 | 0.00 | 54 | 1020.1 |
| 20260902092151 | 22 | 288 | 0.0 | 0.0 | 0.00 | 0.00 | 0.00 | 54 | 1020.0 |
| 20260902091651 | 22 | 288 | 0.0 | 0.0 | 0.00 | 0.00 | 0.00 | 54 | 1020.1 |
| 20260902091148 | 22 | 288 | 0.0 | 0.0 | 0.00 | 0.00 | 0.00 | 54 | 1020.1 |
| 20260902090145 | 22 | 288 | 0.0 | 0.0 | 0.00 | 0.00 | 0.00 | 54 | 1020.0 |
| 20260902085643 | 22 | 288 | 0.0 | 0.0 | 0.00 | 0.00 | 0.00 | 54 | 1020.1 |
| 20260902084641 | 22 | 288 | 0.0 | 0.0 | 0.00 | 0.00 | 0.00 | 54 | 1020.0 |
| 20260902084141 | 22 | 288 | 0.0 | 0.0 | 0.00 | 0.00 | 0.00 | 54 | 1019.9 |
| 20260902083640 | 22 | 288 | 0.0 | 0.0 | 0.00 | 0.00 | 0.00 | 54 | 1019.9 |
| 20260902083140 | 22 | 288 | 0.0 | 0.0 | 0.00 | 0.00 | 0.00 | 54 | 1019.8 |
| 20260902082640 | 22 | 288 | 0.0 | 0.0 | 0.00 | 0.00 | 0.00 | 54 | 1020.0 |
| 20260902082141 | 22 | 288 | 0.0 | 0.0 | 0.00 | 0.00 | 0.00 | 54 | 1019.9 |
| 20260902081641 | 22 | 288 | 0.0 | 0.0 | 0.00 | 0.00 | 0.00 | 54 | 1019.8 |
| 20260902081136 | 22 | 288 | 0.0 | 0.0 | 0.00 | 0.00 | 0.00 | 54 | 1019.9 |
| 20260902080637 | 22 | 288 | 0.0 | 0.0 | 0.00 | 0.00 | 0.00 | 54 | 1019.8 |
| 20260902080144 | 23 | 288 | 0.0 | 0.0 | 0.00 | 0.00 | 0.00 | 54 | 1019.8 |
| 20260902075637 | 23 | 288 | 0.0 | 0.0 | 0.00 | 0.00 | 0.00 | 55 | 1019.8 |
| 20260902075137 | 23 | 288 | 0.0 | 0.0 | 0.00 | 0.00 | 0.00 | 55 | 1019.7 |
| 20260902074636 | 23 | 288 | 0.0 | 0.0 | 0.00 | 0.00 | 0.00 | 55 | 1019.7 |
| 20260902074136 | 23 | 288 | 0.0 | 0.0 | 0.00 | 0.00 | 0.00 | 55 | 1019.8 |
| 20260902073137 | 23 | 288 | 0.0 | 0.0 | 0.00 | 0.00 | 0.00 | 55 | 1019.8 |
| 20260902072633 | 23 | 288 | 0.0 | 0.0 | 0.00 | 0.00 | 0.00 | 55 | 1019.7 |
| 20260902072132 | 23 | 288 | 0.0 | 0.0 | 0.00 | 0.00 | 0.00 | 55 | 1019.7 |
| 20260902071633 | 23 | 288 | 0.0 | 0.0 | 0.00 | 0.00 | 0.00 | 55 | 1019.7 |
| 20260902071132 | 23 | 288 | 0.0 | 0.0 | 0.00 | 0.00 | 0.00 | 56 | 1019.7 |
| 20260902070633 | 23 | 288 | 0.0 | 0.0 | 0.00 | 0.00 | 0.00 | 56 | 1019.7 |
| 20260902070133 | 23 | 288 | 0.0 | 0.0 | 0.00 | 0.00 | 0.00 | 56 | 1019.8 |
| 20260902065633 | 23 | 288 | 0.0 | 0.0 | 0.00 | 0.00 | 0.00 | 56 | 1019.8 |
| 20260902065133 | 23 | 288 | 0.0 | 0.0 | 0.00 | 0.00 | 0.00 | 56 | 1019.8 |
| 20260902064128 | 23 | 288 | 0.0 | 0.0 | 0.00 | 0.00 | 0.00 | 57 | 1019.7 |
| 20260902063628 | 23 | 288 | 0.0 | 0.0 | 0.00 | 0.00 | 0.00 | 57 | 1019.8 |
| 20260902063128 | 23 | 288 | 0.0 | 0.0 | 0.00 | 0.00 | 0.00 | 57 | 1019.8 |
| 20260902062129 | 23 | 288 | 0.0 | 0.0 | 0.00 | 0.00 | 0.00 | 58 | 1019.9 |
| 20260902061628 | 23 | 288 | 0.0 | 0.0 | 0.00 | 0.00 | 0.00 | 58 | 1020.0 |
| 20260902060628 | 23 | 288 | 0.0 | 0.0 | 0.00 | 0.00 | 0.00 | 58 | 1019.9 |
| 20260902060129 | 23 | 288 | 0.0 | 0.0 | 0.00 | 0.00 | 0.00 | 58 | 1019.9 |
| 20260902055629 | 23 | 288 | 0.0 | 0.0 | 0.00 | 0.00 | 0.00 | 59 | 1019.9 |
| 20260902055129 | 23 | 288 | 0.0 | 0.0 | 0.00 | 0.00 | 0.00 | 59 | 1019.9 |
| 20260902054129 | 23 | 288 | 0.0 | 0.0 | 0.00 | 0.00 | 0.00 | 59 | 1019.9 |
| 20260902053628 | 23 | 288 | 0.0 | 0.0 | 0.00 | 0.00 | 0.00 | 60 | 1019.9 |
| 20260902053129 | 23 | 288 | 0.0 | 0.0 | 0.00 | 0.00 | 0.00 | 60 | 1019.9 |
| 20260902052629 | 23 | 288 | 0.0 | 0.0 | 0.00 | 0.00 | 0.00 | 60 | 1019.9 |
| 20260902052135 | 23 | 288 | 0.0 | 0.0 | 0.00 | 0.00 | 0.00 | 60 | 1020.0 |
| 20260902051629 | 23 | 288 | 0.0 | 0.0 | 0.00 | 0.00 | 0.00 | 60 | 1019.9 |
| 20260902051129 | 23 | 288 | 0.0 | 0.0 | 0.00 | 0.00 | 0.00 | 60 | 1019.9 |
| 20260902050629 | 23 | 288 | 0.0 | 0.0 | 0.00 | 0.00 | 0.00 | 60 | 1019.9 |
| 20260902050129 | 23 | 288 | 0.0 | 0.0 | 0.00 | 0.00 | 0.00 | 60 | 1019.9 |
| 20260902045626 | 23 | 288 | 0.0 | 0.0 | 0.00 | 0.00 | 0.00 | 60 | 1019.8 |
| 20260902045125 | 23 | 288 | 0.0 | 0.0 | 0.00 | 0.00 | 0.00 | 60 | 1019.7 |
| 20260902044623 | 24 | 288 | 0.0 | 0.0 | 0.00 | 0.00 | 0.00 | 60 | 1019.8 |
| 20260902044121 | 24 | 288 | 0.0 | 0.0 | 0.00 | 0.00 | 0.00 | 60 | 1019.8 |